Location: Dimple
(35.4684°N, 90.2506°W)
Time: 15:57:34
(UTC+00:00)

Daily predictions for brighter satellites

Satellite Brightness Start Highest point End
(mag) Time Altitude Azimuth Time Altitude Azimuth Time Altitude Azimuth
Lacrosse 4 Rocket 4.1 12:04:53 10° NNE 12:07:10 15° NE 12:09:26 10° E
Cosmos 1315 Rocket 2.9 12:05:32 10° S 12:09:13 71° E 12:12:56 10° NNE
Hubble Space Telescope 2.5 12:10:50 10° SW 12:13:51 23° S 12:16:54 10° ESE
Cosmos 2360 Rocket 2.3 12:08:52 10° SW 12:14:22 57° WNW 12:19:54 10° NNE
Cosmos 2278 4.4 12:10:03 10° SW 12:15:05 33° WNW 12:20:09 10° N
USA 229 DEB 3.7 12:10:02 10° SSW 12:15:44 74° ESE 12:22:04 10° NE
USA 229 3.7 12:10:07 10° SSW 12:15:49 73° ESE 12:22:08 10° NE
DELTA 2 R/B (1) 3.7 12:11:33 10° W 12:17:04 66° NNW 12:22:37 10° ENE
ATLAS 3B R/B 3.4 12:10:25 10° SSW 12:17:43 69° ESE 12:25:30 10° NE
Cosmos 1356 Rocket 3.5 12:14:44 10° S 12:18:33 74° E 12:22:23 10° NNE
Cosmos 2333 4.2 12:14:54 10° SSW 12:20:33 64° WNW 12:26:11 10° NNE
Cosmos 1802 Rocket 4.1 12:16:58 10° SSW 12:23:03 60° W 12:29:17 10° N
